Date String (YYYY-MM-DD hh:mm:ss) UTC,Instrument flags,Ambient pressure (hPa),Sample flow (lpm),Bypass flow (lpm),Sample temperature (°C),Ambient temperature (°C),ASC tube jacket temperature (°C),LED temperature (°C),Box temperature (°C),Sample RH (%),Span deviation,Mass concentration (μg/m³),Mass concentration (μg/m³),Mass concentration (μg/m³)
DateTimeUTC,F1_M11,P_M11,Q1_M11,Q2_M11,T1_M11,T2_M11,T3_M11,T4_M11,T5_M11,U1_M11,ZSPAN_M11,X0_M11,X2_M11,X1_M11
2023-02-12 12:00:00,,0822.8,4.99,0.00,21.9,19.9,00.0,30.9,23.5,10.5,0000.0,0008.59,0003.52,0003.19
2023-02-12 12:01:00,,0822.8,4.99,0.00,21.8,19.9,00.0,30.9,23.4,10.5,0000.0,0008.67,0003.57,0003.25
2023-02-12 12:02:00,,0822.8,4.99,0.00,21.8,19.9,00.0,30.9,23.4,10.4,0000.0,0008.79,0003.62,0003.30
2023-02-12 12:03:00,,0822.8,4.95,0.00,21.8,20.6,00.0,30.8,23.6,10.5,0000.0,0009.69,0003.66,0003.34
2023-02-12 12:04:00,,0822.8,4.95,0.00,22.0,22.0,00.0,30.8,23.9,10.4,0000.0,0009.69,0003.70,0003.39
2023-02-12 12:05:00,,0822.8,4.97,0.00,22.1,22.3,00.0,30.8,24.0,10.2,0000.0,0009.09,0003.72,0003.41
2023-02-12 12:06:00,,0822.8,5.08,0.00,22.1,21.8,00.0,30.8,24.0,10.2,0000.0,0009.06,0003.72,0003.41
2023-02-12 12:07:00,,0822.9,5.01,0.00,22.1,21.4,00.0,30.9,23.9,10.3,0000.0,0009.07,0003.75,0003.42
2023-02-12 12:08:00,,0822.9,5.00,0.00,22.1,21.0,00.0,30.9,23.8,10.3,0000.0,0008.84,0003.80,0003.45
2023-02-12 12:09:00,,0822.9,4.99,0.00,22.0,20.8,00.0,30.9,23.7,10.3,0000.0,0008.36,0003.82,0003.47
2023-02-12 12:10:00,,0822.8,5.00,0.00,22.0,20.6,00.0,30.9,23.6,10.2,0000.0,0007.88,0003.82,0003.48
2023-02-12 12:11:00,,0822.9,5.01,0.00,22.0,20.4,00.0,30.9,23.6,10.3,0000.0,0007.64,0003.79,0003.48
2023-02-12 12:12:00,,0822.9,4.99,0.00,21.9,20.2,00.0,30.9,23.6,10.2,0000.0,0007.53,0003.77,0003.48
2023-02-12 12:13:00,,0822.9,5.00,0.00,21.9,20.1,00.0,30.9,23.5,10.3,0000.0,0007.71,0003.81,0003.48
2023-02-12 12:14:00,,0823.0,5.00,0.00,21.9,20.0,00.0,30.8,23.5,10.3,0000.0,0007.33,0003.83,0003.49
2023-02-12 12:15:00,,0823.0,5.02,0.00,21.8,19.9,00.0,30.8,23.4,10.4,0000.0,0007.39,0003.85,0003.50
2023-02-12 12:16:00,,0823.0,4.99,0.00,21.8,19.8,00.0,30.8,23.4,10.5,0000.0,0007.74,0003.86,0003.51
2023-02-12 12:17:00,,0823.0,5.01,0.00,21.7,19.8,00.0,30.8,23.3,10.5,0000.0,0007.70,0003.87,0003.54
2023-02-12 12:18:00,,0823.0,4.98,0.00,21.8,20.7,00.0,30.7,23.6,10.5,0000.0,0007.63,0003.86,0003.55
2023-02-12 12:19:00,,0823.0,5.05,0.00,21.9,22.0,00.0,30.7,23.9,10.4,0000.0,0007.47,0003.81,0003.55
2023-02-12 12:20:00,,0822.8,4.98,0.00,22.0,22.8,00.0,30.7,24.1,10.3,0000.0,0007.40,0003.79,0003.55
2023-02-12 12:21:00,,0822.8,5.01,0.00,22.1,22.3,00.0,30.8,24.1,10.2,0000.0,0007.39,0003.79,0003.56
2023-02-12 12:22:00,,0822.8,5.06,0.00,22.1,21.8,00.0,30.9,24.0,10.2,0000.0,0007.43,0003.81,0003.57
2023-02-12 12:23:00,,0822.8,5.00,0.00,22.1,21.3,00.0,30.9,23.9,10.2,0000.0,0007.47,0003.84,0003.58
2023-02-12 12:24:00,,0822.8,4.97,0.00,22.1,21.0,00.0,30.9,23.8,10.2,0000.0,0007.50,0003.83,0003.58
2023-02-12 12:25:00,,0822.8,5.02,0.00,22.0,20.7,00.0,30.9,23.8,10.2,0000.0,0006.71,0003.84,0003.59
2023-02-12 12:26:00,,0822.8,5.00,0.00,22.0,20.5,00.0,30.9,23.7,10.2,0000.0,0006.90,0003.85,0003.59
2023-02-12 12:27:00,,0822.9,5.00,0.00,22.0,20.4,00.0,30.9,23.6,10.3,0000.0,0007.55,0003.85,0003.59
2023-02-12 12:28:00,,0822.9,5.01,0.00,21.9,20.2,00.0,30.9,23.5,10.3,0000.0,0007.72,0003.84,0003.59
2023-02-12 12:29:00,,0823.0,5.03,0.00,21.9,20.1,00.0,30.9,23.5,10.3,0000.0,0008.45,0003.83,0003.59
2023-02-12 12:30:00,,0823.0,5.00,0.00,21.9,20.0,00.0,30.9,23.5,10.3,0000.0,0008.47,0003.84,0003.60
2023-02-12 12:31:00,,0823.0,5.00,0.00,21.8,20.0,00.0,30.8,23.5,10.3,0000.0,0008.54,0003.87,0003.60
2023-02-12 12:32:00,,0823.0,4.99,0.00,21.8,19.9,00.0,30.8,23.5,10.4,0000.0,0008.55,0003.86,0003.59
2023-02-12 12:33:00,,0823.0,5.01,0.00,21.8,19.9,00.0,30.8,23.4,10.4,0000.0,0008.54,0003.85,0003.58
2023-02-12 12:34:00,,0823.0,5.02,0.00,21.8,19.9,00.0,30.8,23.4,10.4,0000.0,0008.49,0003.83,0003.58
2023-02-12 12:35:00,,0823.0,4.99,0.00,21.7,19.8,00.0,30.8,23.4,10.4,0000.0,0008.47,0003.84,0003.58
2023-02-12 12:36:00,,0823.0,5.00,0.00,21.7,20.0,00.0,30.7,23.4,10.4,0000.0,0008.42,0003.83,0003.58
2023-02-12 12:37:00,,0822.9,4.97,0.00,21.8,21.3,00.0,30.7,23.7,10.4,0000.0,0008.30,0003.78,0003.58
2023-02-12 12:38:00,,0823.0,4.99,0.00,22.0,22.4,00.0,30.7,24.0,10.3,0000.0,0007.40,0003.76,0003.56
2023-02-12 12:39:00,,0823.0,4.99,0.00,22.0,22.2,00.0,30.8,24.0,10.3,0000.0,0006.75,0003.73,0003.53
2023-02-12 12:40:00,,0823.0,4.98,0.00,22.1,21.9,00.0,30.8,24.0,10.3,0000.0,0005.46,0003.74,0003.52
2023-02-12 12:41:00,,0823.0,4.99,0.00,22.1,21.6,00.0,30.8,24.0,10.2,0000.0,0005.41,0003.75,0003.51
2023-02-12 12:42:00,,0822.9,4.94,0.00,22.1,21.4,00.0,30.9,23.9,10.2,0000.0,0005.33,0003.72,0003.49
2023-02-12 12:43:00,,0823.0,5.00,0.00,22.1,21.2,00.0,30.9,23.9,10.2,0000.0,0005.31,0003.71,0003.48
2023-02-12 12:44:00,,0823.1,5.00,0.00,22.1,21.0,00.0,30.9,23.9,10.2,0000.0,0005.24,0003.68,0003.46
2023-02-12 12:45:00,,0823.1,4.99,0.00,22.1,20.9,00.0,30.9,23.9,10.3,0000.0,0005.68,0003.67,0003.44
2023-02-12 12:46:00,,0823.1,5.02,0.00,22.1,20.8,00.0,30.9,23.9,10.3,0000.0,0006.05,0003.64,0003.43
2023-02-12 12:47:00,,0823.1,5.01,0.00,22.1,20.7,00.0,30.9,23.9,10.3,0000.0,0005.98,0003.63,0003.42
2023-02-12 12:48:00,,0823.1,5.01,0.00,22.1,20.7,00.0,30.9,23.9,10.5,0000.0,0007.06,0003.65,0003.41
2023-02-12 12:49:00,,0823.0,5.01,0.00,22.1,20.6,00.0,30.9,23.9,10.5,0000.0,0007.20,0003.65,0003.42
2023-02-12 12:50:00,,0823.1,5.02,0.00,22.1,20.6,00.0,30.9,23.9,10.4,0000.0,0007.35,0003.69,0003.43
2023-02-12 12:51:00,,0823.1,5.01,0.00,22.1,20.5,00.0,30.9,23.9,10.4,0000.0,0007.29,0003.68,0003.43
2023-02-12 12:52:00,,0823.1,4.99,0.00,22.1,20.5,00.0,30.9,23.9,10.5,0000.0,0007.78,0003.67,0003.44
2023-02-12 12:53:00,,0823.1,5.02,0.00,22.0,20.4,00.0,30.9,23.9,10.7,0000.0,0007.92,0003.67,0003.44
2023-02-12 12:54:00,,0823.2,5.00,0.00,22.0,20.4,00.0,30.9,23.8,10.9,0000.0,0008.03,0003.68,0003.46
2023-02-12 12:55:00,,0823.2,5.01,0.00,22.0,20.4,00.0,30.9,23.8,11.1,0000.0,0008.07,0003.71,0003.48
2023-02-12 12:56:00,,0823.2,5.02,0.00,22.0,20.4,00.0,30.9,23.8,11.5,0000.0,0007.98,0003.76,0003.52
2023-02-12 12:57:00,,0823.2,4.98,0.00,22.0,20.3,00.0,30.9,23.8,11.6,0000.0,0007.80,0003.85,0003.57
2023-02-12 12:58:00,,0823.2,5.01,0.00,22.0,20.3,00.0,30.9,23.8,11.6,0000.0,0007.89,0003.90,0003.62
2023-02-12 12:59:00,,0823.2,5.02,0.00,22.0,20.5,00.0,30.9,23.8,11.6,0000.0,0007.37,0003.96,0003.68
